Home > Weather > Santiago > Past weeks

Flag for Chile Weather for the Past 2 Weeks in Santiago, Chile

Now
54 °F

Passing clouds.


Feels Like: 53 °F
Forecast: 49 / 68 °F
Wind: 3 mph from South

Location: Pudahuel

Current Time: May 6, 2016 at 1:45:27 AM

Latest Report: May 6, 2016 at 1:00 AM


Visibility: N/A

Pressure: 30.09 "Hg (28.08 "Hg at 576m altitude)

Humidity: 82%

Dew Point: 48 °F

Location of SantiagoLocation

Historic Weather in Santiago — Graph

°F

Santiago Temperature Yesterday

Maximum temperature yesterday: 63 °F (at 6:00 PM)
Minimum temperature yesterday: 54 °F (at 2:00 AM)
Average temperature yesterday: 57 °F

High & Low Weather Summary for the Past Weeks

 TemperatureHumidityPressure
High79 °F (Apr 30, 4:00 PM)100% (Apr 25, 8:00 AM)30.15 "Hg (Apr 25, 8:00 AM)
Low37 °F (Apr 25, 7:00 AM)12% (Apr 26, 4:00 PM)29.80 "Hg (Apr 30, 4:00 PM)
Average57 °F68%30.01 "Hg
* Reported Apr 21 1:00 AM — May 6 1:00 AM, Santiago, Weather by CustomWeather, © 2016

Note: Actual official high and low records may vary slightly from our data, if they occured in-between our weather recording intervals... More about our weather records

Advertising

Santiago Weather History for the Previous 24 Hours

Scroll right to see more
 ConditionsComfort  
Time TempWeatherWind HumidityBarometerVisibility
1:00 AM
Fri, May 6
54 °FPassing clouds.3 mph82%30.09 "HgN/A
12:00 AM55 °FPassing clouds.6 mph82%30.09 "HgN/A
11:00 PM
Thu, May 5
55 °FPassing clouds.8 mph82%30.09 "Hg5 mi
10:00 PM57 °FPartly cloudy.7 mph77%30.07 "Hg5 mi
9:00 PM57 °FPassing clouds.6 mph77%30.07 "Hg5 mi
8:00 PM59 °FPassing clouds.7 mph72%30.07 "Hg5 mi
7:00 PM61 °FPassing clouds.10 mph68%30.04 "Hg4 mi
6:00 PM63 °FBroken clouds.3 mph64%30.07 "Hg4 mi
5:00 PM61 °FBroken clouds.7 mph68%30.04 "Hg4 mi
4:00 PM61 °FBroken clouds.2 mph68%30.04 "Hg4 mi
3:00 PM59 °FBroken clouds.2 mph72%30.04 "Hg3 mi
2:00 PM59 °FOvercast.7 mph77%30.04 "Hg3 mi
1:00 PM59 °FOvercast.9 mph77%30.04 "Hg3 mi
12:00 PM57 °FLow clouds.7 mph82%30.04 "Hg3 mi
11:00 AM55 °FMore clouds than sun.5 mph88%30.04 "Hg2 mi
10:00 AM55 °FMore clouds than sun.2 mph88%30.07 "Hg2 mi
9:00 AM55 °FFog.9 mph88%30.04 "Hg2 mi
8:00 AM55 °FMostly cloudy.3 mph88%30.04 "Hg3 mi
7:00 AM55 °FPassing clouds.2 mph88%29.98 "Hg4 mi
6:00 AM55 °FFog.5 mph88%29.98 "Hg3 mi
5:00 AM55 °FFog.9 mph88%30.01 "Hg3 mi
4:00 AM55 °FFog.8 mph88%30.01 "Hg1 mi
3:00 AM55 °FFog.8 mph88%29.98 "Hg2 mi
2:00 AM54 °FFog.6 mph94%29.98 "Hg2 mi
1:00 AM55 °FFog.5 mph88%30.01 "Hg3 mi
Weather by CustomWeather, © 2016

See weather overviewHow to use our weather pages